Regional Weather Roundup
Issued by NWS

Home | Current Version | Previous Version | Graphics & Text | Print | Product List | Glossary Off
Versions: 1 2 3 4 5 6 7 8 9 10 11 12 13 14 15 16 17 18 19 20 21 22 23 24 25 26 27 28 29 30 31 32 33 34 35 36 37 38 39 40 41 42 43 44 45 46 47 48 49 50

000
ASUS43 KTOP 252259
RWRKS

WEATHER ROUNDUP FOR KANSAS
NATIONAL WEATHER SERVICE GOODLAND KS
600 PM CDT MON JUL 25 2016

NOTE:  "FAIR" INDICATES FEW OR NO CLOUDS BELOW 12,000 FEET WITH NO
SIGNIFICANT WEATHER AND/OR OBSTRUCTIONS TO VISIBILITY.

KSZ001>006-013>018-027>032-041>047-260000-
NORTHWEST KANSAS

CITY           SKY/WX    TMP DP  RH WIND       PRES   REMARKS
GOODLAND       SUNNY     84  63  49 S13       30.10F
HAYS           MOSUNNY   84  63  48 SE7       30.04F
HILL CITY      SUNNY     86  66  51 SE9       30.04F
RUSSELL        SUNNY     85  64  49 E12       30.03F
$$

KSZ061>065-074>080-084>089-260000-
SOUTHWEST KANSAS

CITY           SKY/WX    TMP DP  RH WIND       PRES   REMARKS
DODGE CITY     SUNNY     87  65  47 E6        30.05F
ELKHART          N/A     87  66  49 E14         N/A
GARDEN CITY    SUNNY     84  66  54 E8        30.06F
GREAT BEND     SUNNY     84  66  54 E12G17    30.03F
LIBERAL        SUNNY     88  64  45 E12       30.07F
$$

KSZ066>073-081>083-090>101-260000-
SOUTHEAST KANSAS

CITY           SKY/WX    TMP DP  RH WIND       PRES   REMARKS
CHANUTE        CLOUDY    82  72  71 NE9       30.00F
COFFEYVILLE    CLOUDY    84  72  67 NE15      29.98R
HUTCHINSON     MOSUNNY   85  69  58 NE9       30.02F
NEWTON         CLOUDY    81  70  69 NE9       30.04F
PARSONS          N/A    N/A N/A N/A MISG      30.01S
WICHITA INTL   CLOUDY    84  71  65 NE20      30.01R
WICHITA JABRA  PTSUNNY   80  71  74 NE15      30.02S
WINFIELD       CLOUDY    87  69  54 NE9       29.99S
$$

KSZ007>012-019>026-033>040-048>060-102>105-260000-
NORTHEAST KANSAS

CITY           SKY/WX    TMP DP  RH WIND       PRES   REMARKS
CONCORDIA      SUNNY     85  61  44 E8        30.04F
EMPORIA        CLOUDY    80  72  76 N7        30.03F
LAWRENCE       PTSUNNY   82  72  71 N6        30.02S
MANHATTAN      MOSUNNY   84  70  62 VRB7      30.02F
OLATHE IND     PTSUNNY   85  71  63 E6        30.03F
OLATHE EXE     MOSUNNY   83  69  62 NE7       30.03S
SALINA         SUNNY     87  65  47 E8        30.03F
TOPEKA BILLARD MOSUNNY   85  69  58 E6        30.03S
TOPEKA FORBES  CLOUDY    85  71  63 N8        30.03S
$$




USA.gov is the U.S. government's official web portal to all federal, state and local government web resources and services.